Regional Weather Roundup
Issued by NWS Pendleton, OR

Home | Current Version | Previous Version | Text Only | Print | Product List | Glossary On
Versions: 1 2 3 4 5 6 7 8 9 10 11 12 13 14 15 16 17 18 19 20 21 22 23 24 25 26 27 28 29 30 31 32 33 34 35 36 37 38 39 40 41 42 43 44 45 46 47 48 49 50
000
ASUS46 KPDT 300104
RWRPDT
PENDLETON REGIONAL WEATHER ROUNDUP
NATIONAL WEATHER SERVICE PENDLETON OREGON
600 PM PDT FRI MAY 29 2015

NOTE: FAIR INDICATES FEW OR NO CLOUDS BELOW 12,000 FEET WITH NO
SIGNIFICANT WEATHER AND/OR OBSTRUCTIONS TO VISIBILITY.

# INDICATES UNOFFICIAL STATION AND DATA

WAZ520-300210-
EAST SLOPES OF WASHINGTON CASCADES

CITY            SKY/WX      TMP DP  RH  WIND    PRES   REMARKS
#BULLFROG       N/A         69  66  90  CALM    N/A
#BUMPING DAM    N/A         73  N/A N/A S1      N/A
#CLE ELUM HS    N/A         69  64  84  CALM    29.86F
#CLE ELUM LAKE  N/A         69  61  76  CALM    29.79F
#CLIFFDEL 2NW   N/A         74  51  44  CALM    N/A
#EASTON DOT     N/A         66  56  70  E1      N/A
#ELK HTS DOT    N/A         71  71  100 CALM    N/A
#GLENWOOD       N/A         81  57  44  SW7     29.78S
#NELSON         N/A         68  66  93  CALM    29.82F
#NELSON 3SW     N/A         66  63  90  CALM    30.01S
#NILE           N/A         67  64  90  NE1     29.09S
#PEOH POINT     N/A         62  54  75  SW7     N/A
#RONALD 2NW     N/A         67   9  10  CALM    29.81F
#SNOWDEN        N/A         75  36  24  CALM    N/A
#SOUTH BLEWITT  N/A         64  63  97  CALM    N/A
#TEANAWAY 4NE   N/A         66  66  100 CALM    N/A
#TROUT LAKE 1NE N/A         81  55  41  W5      29.78F
$$

WAZ521-300210-
SIMCOE HIGHLANDS

CITY            SKY/WX      TMP DP  RH  WIND    PRES   REMARKS
#BICKLETON HS   N/A         80  37  21  SW6     N/A
#SATUS PASS DOT N/A         82  37  20  CALM    N/A
#CENTERVILLE 4W N/A         84  57  40  NW14    29.63F
#CENTERVILLE 1SWN/A         83  57  41  W15     29.74F
#GOLDENDALE     N/A         87  49  27  W7      N/A
#GOLDENDALE 5WNWN/A         83  56  40  SW12    29.75F
#GOODNOE HILLS  N/A         91  47  22  W8      N/A    HX 88
#LYLE 6NE       N/A         80  54  41  SW8     29.75F
$$

WAZ026-300210-
KITTITAS VALLEY

CITY            SKY/WX      TMP DP  RH  WIND    PRES   REMARKS
ELLENSBURG AP   PTCLDY      78  58  50  NW15    29.85F
YTC-OPS AREA    N/A         76  43  31  E6      29.90F
#ELLENSBURG CWU N/A         77  57  50  N14     29.72S
#ELLENSBURG 3NE N/A         77  60  56  W7      29.86S
#ELLENSBURG 1E  N/A         80  49  34  NW1     N/A
#KITTITAS 4N    N/A         85  57  39  N3      28.17F
#KITTITAS 3S    N/A         80  59  49  W2      29.75F
#MANASTASH RDG  N/A         82  82  100 SE2     N/A
#ROCKY CYN DOT  N/A         75  56  52  W9      N/A
#RYEGRASS DOT   N/A         80  48  33  SE9     N/A
#THORP 6N       N/A         70  60  71  N8      29.80F
$$

WAZ027-300210-
YAKIMA VALLEY

CITY            SKY/WX      TMP DP  RH  WIND    PRES   REMARKS
SUNNYSIDE AP    CLOUDY      87  50  28  E6      29.78F
YAKIMA AIRPORT  PTCLDY      88  48  25  SE6     29.80F
#DONALD 2NE     N/A         93  21   7  E1      28.65F HX 88
#GRANDVIEW      N/A         86  47  26  CALM    29.76F
#MABTON         N/A         88  52  29  NE1     29.77F
#NACHES 2SW     N/A         84  58  41  SE1     29.87F
#PARKER DOT     N/A         89  46  23  W6      N/A
#SELAH 8E       N/A         87  46  24  S7      N/A
#TERRACE HTS    N/A         87  49  27  S3      29.72F
#TOPPENISH      N/A         88  53  30  E2      29.66F
#I82 S UMTANUM RN/A         86  51  30  S6      N/A
#UNION GAP DOT  N/A         88  44  22  S5      N/A
#WAPATO 4NE     N/A         93  21   7  E1      28.65F HX 88
#WEST VALLEY    N/A         86  52  31  CALM    29.74S
#W YAKIMA       N/A         86  51  30  S1      29.75F
#WHITE SWAN 5E  N/A         87  56  35  NE2     29.75F
#WILEY CITY 3W  N/A         84  44  25  CALM    29.79F
#ZILLAH DOT     N/A         90  45  21  NE6     N/A    HX 86
$$

WAZ028-300210-
LOWER COLUMBIA BASIN...WASHINGTON

CITY            SKY/WX      TMP DP  RH  WIND    PRES   REMARKS
PASCO           CLOUDY      92  42  18  E5      29.77F HX 88
RICHLAND AWOS   CLOUDY      91  48  23  SE3     29.78F HX 88
#BASIN CITY 5SW N/A         83  67  59  CALM    29.78F
#BENTON CITY    N/A         86  50  29  NE2     29.66F
#CONNELL 5N     N/A         89  43  20  CALM    29.75F
#CONNELL 5NW    N/A         89  46  23  CALM    29.71F
#ELTOPIA        N/A         93  51  24  CALM    29.71F HX 90
#ELTOPIA 6NW    N/A         89  50  26  CALM    28.77F
#KAHLOTUS       N/A         89  41  19  W3      29.76F
#KENNEWICK 3S   N/A         91  49  24  CALM    29.75F HX 88
#PASCO-BROADMOORN/A         94  47  20  NE1     29.63F HX 90
#PATERSON       N/A         89  54  31  NE1     29.72F
#PROSSER DOT    N/A         89  45  22  NE7     N/A
#PROSSER        N/A         88  44  22  NE2     29.74F
#SAGEMOOR 2W    N/A         91  56  31  CALM    29.61F HX 89
#TOUCHET 2S     N/A         87  71  59  CALM    29.73F
#WEST PASCO     N/A         93  54  27  SE1     29.75S HX 91
$$

WAZ029-300210-
FOOTHILLS OF THE BLUES...WASHINGTON

CITY            SKY/WX      TMP DP  RH  WIND    PRES   REMARKS
WALLA WALLA AP  CLOUDY      90  41  18  NE7     29.82F HX 86
#DAYTON SCHOOL  N/A         84  43  24  N2      29.86F
#LOWDEN 2SE     N/A         91  47  22  E1      29.74F HX 88
#PLEASANT VIEW 1N/A         86  44  23  CALM    29.80F
#PRESCOTT       N/A         88  58  36  CALM    29.74F
#SUDBURY        N/A         91  N/A N/A CALM    N/A
#WHITMAN COLLEGEN/A         89  52  28  N5      29.80F
#WAITSBURG 8N   N/A         89  32  13  N3      29.65F
#WALLA WALLA U  N/A         90  46  22  E1      29.75S HX 87
#WHITMAN MISSIONN/A         92  55  29  CALM    29.76F HX 90
$$

WAZ030-300210-
BLUE MOUNTAINS...WASHINGTON

CITY            SKY/WX      TMP DP  RH  WIND    PRES   REMARKS
#DIXIE 5SE      N/A         78  47  34  CALM    29.87F
$$

ORZ009-041-WAZ024-300210-
COLUMBIA RIVER GORGE

CITY            SKY/WX      TMP DP  RH  WIND    PRES   REMARKS
HOOD RIVER AP   CLOUDY      82  54  38  NW14    29.83F
THE DALLES AP   CLOUDY      85  53  33  NW16    29.78S
#ARLINGTON AIRPON/A         89  49  25  W3      29.80R
#ARLINGTON HS   N/A         92  48  22  E1      29.64F HX 89
#CELILO DOT     N/A         92  58  32  W9      N/A    HX 91
#MARYHILL       N/A         89  49  25  SE1     N/A
#MOSIER 1S      N/A         82  44  26  NW9     29.82S
#MURDOCK        N/A         83  59  44  NW18    29.78F
#RUFUS DOT      N/A         95  56  27  N2      N/A    HX 93

$$

ORZ510-300210-
NORTH CENTRAL OREGON

CITY            SKY/WX      TMP DP  RH  WIND    PRES   REMARKS
#CHENOWITH 1W   N/A         78  54  43  NW22    N/A
#COW CYN RST AREN/A         70  N/A N/A NW7     N/A
#DUFUR 9E       N/A         77  55  47  NW15    29.81F
#GRASS VALLEY 1SN/A         80  51  36  N14     29.81R
#KENT DOT       N/A         81  42  25  NW12    N/A
#MAUPIN SCHOOL  N/A         87  56  35  CALM    29.83R
#MORO SCHOOL    N/A         81  61  51  NW10    29.87R
#SHANIKO 5WSW   N/A         74  39  28  SW21    N/A
#SHANIKO 4NW    N/A         64  54  70  SW16G31 29.98R
#TYGH VALLEY 2NEN/A         85  55  36  N9      29.75S
#WAPANITIA AIRPON/A         82  53  37  N3      29.78S
#WASCO DOT      N/A         90  49  25  W8      N/A    HX 87
#WASCO 5NE      N/A         89  52  28  N1      29.76S
$$

ORZ511-300210-
CENTRAL OREGON

CITY            SKY/WX      TMP DP  RH  WIND    PRES   REMARKS
BEND AIRPORT    THUNDER     75  45  34  CALM    29.95S
MADRAS AIRPORT  LGT RAIN    72  57  59  CALM    29.92F
PRINEVILLE AP   CLOUDY      73  52  48  N7      29.94F
REDMOND AIRPORT THUNDER     76  48  37  NW12    29.94S
#BEND 1SW       N/A         74  50  43  NE1     N/A
#BEND-AWBREY    N/A         77  51  40  W3      29.79S
#BEND-KIM LN    N/A         75  51  43  CALM    29.93S
#CROOKED RVR RANN/A         66  59  78  SW9     29.79R
#LAKE BILLY CHINN/A         73  34  24  SE6     29.96F
#POWELL BUTTE 3EN/A         73  50  44  E3      N/A
#POWELL BUTTE   N/A         74  49  41  SE1     29.59F
#PRINEVILLE 3N  N/A         71  59  66  NE2     29.76S
#WARM SPRINGS   N/A         78  56  47  W7      29.84S

$$


ORZ509-300210-
EAST SLOPES OF OREGON CASCADES

CITY            SKY/WX      TMP DP  RH  WIND    PRES   REMARKS
#BLUE BOX PASS  N/A         68  12  11  NW3     N/A
#CAMP SHERMAN   N/A         79  50  36  N1      29.83R
#LA PINE 4NW    N/A         73  52  48  CALM    29.86R
#MT BACHELOR-MIDN/A         98  N/A N/A CALM    N/A
#SISTERS AIRPOR N/A         72  60  66  N5      30.17S
#SISTERS ODOT   N/A         73  N/A N/A NE1     N/A
#SISTERS 3N     N/A         72  54  53  N3      29.95S
#SUNRIVER       N/A         74  48  40  CALM    29.70F
#TUMALO 3W      N/A         66  55  68  W8      29.67F
#WANOGA BUTTE D N/A         64  43  46  NE2     N/A

$$

ORZ044-300210-
LOWER COLUMBIA BASIN...OREGON

CITY            SKY/WX      TMP DP  RH  WIND    PRES   REMARKS
HERMISTON       CLOUDY      81  53  38  E18G29  29.78S HAZE
#BOARDMAN SCHOOLN/A         90  50  26  N5      29.77F HX 87
#ECHO 8SW       N/A         86  54  34  E9      29.80S
#IONE SCHOOL    N/A         88  48  25  CALM    29.76F
#IRRIGON 4NW    N/A         91  49  24  E2      N/A    HX 88
#UMATILLA SCHOOLN/A         95  61  33  N2      29.80F HX 96
#UMATILLA       N/A         93  48  22  CALM    29.67F HX 90
$$

ORZ507-300210-
NORTHERN FOOTHILLS OF THE BLUES

CITY            SKY/WX      TMP DP  RH  WIND    PRES   REMARKS
PENDLETON AIRPT THUNDER     74  53  48  VRB7    29.83R
#ADAMS 3WNW     N/A         83  55  38  E1      29.75F
#ATHENA         N/A         84  52  33  S1      29.79S
#CAYUSE         N/A         82  51  34  E13     29.74F
#HELIX SCHOOL   N/A         85  52  32  E7      29.76F
#HELIX 3N       N/A         82  49  32  E7      29.83F
#HELIX 6SW      N/A         82  52  35  S8      29.85R
#HOLDMAN 6E     N/A         84  50  31  N2      29.57F
#M-F FERNDALE   N/A         88  53  30  CALM    29.80S
#M-F GROVE ELEM N/A         88  42  20  CALM    29.80F
#M-FREEWATER 5SEN/A         88  54  31  CALM    29.82F
#PENDLETON DNTN N/A         81  47  30  NW1     29.81R
#PDT AQUATIC CTRN/A         82  48  31  W6G126  29.86R
#PENDLETON 5NE  N/A         80  57  45  S1      29.80S
#PDT SUNRIDGE   N/A         82  50  33  CALM    29.83R
#PENDLETON 7NW  N/A         82  59  46  S14G26  N/A
#PILOT ROCK     N/A         82  52  35  E7      29.86F
#TUTUILLA       N/A         80  53  39  SE2     29.78F
#UMAPINE 2E     N/A         87  63  45  E1      29.76S
#WESTON SCHOOL  N/A         81  44  27  SW5     29.80S

$$

ORZ508-300210-
SOUTHERN FOOTHILLS OF THE BLUES

CITY            SKY/WX      TMP DP  RH  WIND    PRES   REMARKS
#AJAX           N/A         83  46  27  W1      29.81F
#CONDON SCHOOL  N/A         80  51  36  CALM    29.87S
#CONDON 5W      N/A         77  46  33  N8      29.90F
#FOSSIL SCHOOL  N/A         68  56  65  S12     29.94R
#HEPPNER EOC    N/A         76  54  46  E7      29.68F
#HEPPNER 4NE    N/A         77  52  42  CALM    29.75F
#LEXINGTON 2SE  N/A         86  57  37  SE7     29.78F
#RUGGS 5NE      N/A         77  54  45  E3      30.07S
#RUGGS 2SW      N/A         74  58  57  CALM    29.77S

$$

ORZ502-503-300210-
BLUE MOUNTAINS

CITY            SKY/WX      TMP DP  RH  WIND    PRES   REMARKS
#BATTLE MTN DOT N/A         73  50  44  SE2     N/A
#HEPPNER 15SE   N/A         75  52  45  CALM    29.88F
#LADD CYN SMT   N/A         67  47  49  S3      N/A
#LONG CREEK HS  N/A         76  46  34  CALM    29.88F
#N POWDER DOT   N/A         71  49  46  NE9     N/A
#PIKES PEAK     N/A         75  45  34  N2      27.99S
#TOLLGATE       N/A         67  45  45  SW2     29.98S
#TROY SCHOOL    N/A         81  54  39  CALM    29.67R
#UKIAH          N/A         78  52  40  CALM    29.83F
#WESTON 4E      N/A         74  47  38  E7      29.74S
$$

ORZ505-300210-
JOHN DAY BASIN

CITY            SKY/WX      TMP DP  RH  WIND    PRES   REMARKS
JOHN DAY        MOCLDY      82  42  24  SW20G25 29.95S
#JOHN DAY KJDY  N/A         87  58  38  W5      29.82R
#DAYVILLE SCHOOLN/A         84  41  22  W7G25   29.87R
#MITCHELL       N/A         70  56  61  CALM    30.09S
#MONUMENT HS    N/A         85  42  22  CALM    29.85F
#MT. VERNON 5SE N/A         74  44  34  SE2     29.92S
$$

ORZ506-300210-
OCHOCO AND JOHN DAY HIGHLANDS

CITY            SKY/WX      TMP DP  RH  WIND    PRES   REMARKS
#BUCK CREEK DOT N/A         81  81  100 SW12    N/A
#HORSE RIDGE DO N/A         74  43  33  N7      N/A
#KEYES SMT DOT  N/A         65  49  56  NW8     N/A
#PAULINA SCHOOL N/A         76  42  30  N8      29.92R
#PINE MTN OBS   N/A         57  47  69  NW6     N/A
#PRAIRIE CITY   N/A         79  46  31  CALM    29.72R
#SENECA         N/A         76  N/A N/A NE2     N/A
#SENECA 9NW     N/A         71  45  39  CALM    29.82F
$$

ORZ049-300210-
GRANDE RONDE VALLEY

CITY            SKY/WX      TMP DP  RH  WIND    PRES   REMARKS
LA GRANDE       THUNDER     73  45  37  W5      29.97R
#COVE           N/A         72  51  48  E6      29.96F
#COVE SCHOOL    N/A         72  48  43  E12     29.94F
#ELGIN 3N       N/A         72  48  43  S5      29.93S
#ELGIN 1E       N/A         73  51  46  CALM    N/A
#ISLAND CITY 4N N/A         77  64  64  CALM    29.86S
#LADD CYN DOT   N/A         72  49  44  S8      N/A
#LA GRANDE ELEM N/A         67  55  65  NW3     29.99R
#UNION 1S       N/A         69  51  53  E7      29.75F
$$

ORZ050-300210-
WALLOWA COUNTY

CITY            SKY/WX      TMP DP  RH  WIND    PRES   REMARKS
#ENTERPRISE HS  N/A         68  52  57  SE1     30.01F
#IMNAHA SCHOOL  N/A         79  49  35  S6      29.93R
#IMNAHA 10S     N/A         74  48  40  SW5     29.99R
#JOSEPH 3N      N/A         65  50  58  S13     30.07R
#JOSEPH 3W      N/A         57  50  77  SW6     29.92R
#LOSTINE        N/A         74  47  38  S7      29.67S
#MT HOWARD 8000 N/A         52  39  61  W8      30.27S
#PROMISE 1S     N/A         74  50  43  E2      29.96S
#SHEEP RDG 7000 N/A         54  38  55  CALM    29.92S
#WALLOWA SCHOOL N/A         74  52  46  E1      30.73S



$$



USA.gov is the U.S. government's official web portal to all federal, state and local government web resources and services.